User: anonymous   Login
Location: Unspecified
(0.0000°N, 0.0000°E)
Time: 09:27:08
(UTC+00:00)
Language:

Geosat FO - Orbit

View from above orbital plane
View from above orbital plane
View from above satellite
View from above satellite

Ground track
Ground track

The orbit data is extracted from the following two-line orbital elements,

1 25157U 98007A   19345.79358006 +.00000737 +00000-0 +58874-4 0  9997
2 25157 108.0479 325.4939 0169787 010.3257 350.1336 15.01056183165577
Epoch (UTC): 11 December 2019 19:02:45
Eccentricity: 0.0169787
inclination: 108.0479°
perigee height: 446 km
apogee height: 681 km
right ascension of ascending node: 325.4939°
argument of perigee: 10.3257°
revolutions per day: 15.01056183
mean anomaly at epoch: 350.1336°
orbit number at epoch: 16557

The dashed part of the orbit path shows where the satellite is in the earth's shadow,  

DLR